Location: Central Falls
(41.8900°N, 71.3929°W)
Time: 15:57:11
(UTC+00:00)

Vanguard 1 Rocket - Pass Details

Date: 11 December 2023
Orbit: 654 x 4218 km, 34.3° (Epoch: 24 February)

Event Time Altitude Azimuth Distance (km) Brightness Sun altitude
Rises 06:43:20 0° 220° (SW) 8,151 - -57.9°
Reaches altitude 10° 06:49:10 10° 215° (SW) 7,317 - -56.9°
Exits shadow 07:09:08 44° 170° (S) 4,894 10.8 -53.5°
Maximum altitude 07:12:56 47° 151° (SSE) 4,659 10.7 -52.8°
Drops below altitude 10° 07:30:36 10° 86° (E) 5,647 11.9 -49.6°
Sets 07:34:19 0° 81° (E) 6,260 12.3 -49.0°
